Weather History for Washington, MO

Change the Weather History Date:

Monday, November 12, 2012

  Actual Average (KSTL) Record (KSTL)
Temperature  
Mean Temperature 36 °F 49 °F  
Max Temperature 44 °F 58 °F 79 °F (1971)
Min Temperature 28 °F 40 °F 12 °F (1911)
Degree Days  
Heating Degree Days 29 17  
Month to date heating degree days 171  
Since 1 July heating degree days 447  
Cooling Degree Days 0 0  
Month to date cooling degree days 0  
Year to date cooling degree days 1642  
Moisture  
Dew Point 23 °F    
Average Humidity 62    
Maximum Humidity 93    
Minimum Humidity 37    
Precipitation  
Precipitation 0.00 in 0.13 in 1.22 in (1909)
Month to date precipitation 1.48  
Year to date precipitation 35.69  
Snow  
Snow - 0.00 in 0.10 in (1907)
Month to date snowfall 0.1  
Since 1 July snowfall 0.1  
Since 1 September snowfall 0.1  
Snow Depth -    
Sea Level Pressure  
Sea Level Pressure 30.33 in    
Wind  
Wind Speed 9 mph ()    
Max Wind Speed 18 mph    
Max Gust Speed 34 mph    
Visibility 10.0 miles    
Events      
T = Trace of Precipitation, MM = Missing Value Source: Averaged Metar Reports

Daily Weather History Graph

Daily Weather History Graph

Search for Another Location

Airport:

Trip Planner

Search our weather history database for the weather conditions in past years. The results will help you decide how hot, cold, wet, or windy it might be!

Date:

Astronomy

Nov. 12, 2012 Rise Set
Actual Time 6:43 AM CST 4:52 PM CST
Civil Twilight 6:14 AM CST 5:20 PM CST
Nautical Twilight 5:43 AM CST 5:52 PM CST
Astronomical Twilight 5:11 AM CST 6:24 PM CST
Moon 5:09 AM CST (11/12) 3:57 PM CST (11/12)
Length of Visible Light 11h 05m
Length of Day
10h 09m
Waning Crescent, 2% of the Moon is Illuminated
Nov 12
Waning Crescent
Nov 13
New
Nov 20
First Quarter
Nov 28
Full
Dec 6
Last Quarter

Hourly Weather History & Observations

Time (CST) Temp. Windchill Dew Point Humidity Pressure Visibility Wind Dir Wind Speed Gust Speed Precip Events Conditions
12:15 AM 35.6 °F 27.1 °F 32.0 °F 87% 30.14 in 10.0 mi NW 12.7 mph 21.9 mph N/A   Overcast
12:55 AM 35.6 °F 26.2 °F 30.2 °F 81% 30.17 in 10.0 mi NW 15.0 mph 23.0 mph N/A   Overcast
1:15 AM 35.6 °F 27.1 °F 28.4 °F 75% 30.19 in 10.0 mi WNW 12.7 mph 19.6 mph N/A   Overcast
1:35 AM 35.6 °F 27.1 °F 28.4 °F 75% 30.18 in 10.0 mi NW 12.7 mph 18.4 mph N/A   Overcast
1:55 AM 33.8 °F 22.8 °F 26.6 °F 75% 30.19 in 10.0 mi NW 18.4 mph 23.0 mph N/A   Overcast
2:15 AM 33.8 °F 25.3 °F 26.6 °F 75% 30.20 in 10.0 mi WNW 11.5 mph 17.3 mph N/A   Overcast
2:35 AM 33.8 °F 24.8 °F 26.6 °F 75% 30.21 in 10.0 mi WNW 12.7 mph 21.9 mph N/A   Overcast
2:55 AM 32.0 °F 22.5 °F 26.6 °F 80% 30.19 in 10.0 mi NW 12.7 mph 24.2 mph N/A   Overcast
3:15 AM 32.0 °F 22.1 °F 23.0 °F 69% 30.22 in 10.0 mi NW 13.8 mph - N/A   Scattered Clouds
3:35 AM 32.0 °F 22.5 °F 23.0 °F 69% 30.21 in 10.0 mi NW 12.7 mph 19.6 mph N/A   Clear
3:55 AM 32.0 °F 23.0 °F 23.0 °F 69% 30.23 in 10.0 mi WNW 11.5 mph 20.7 mph N/A   Clear
4:15 AM 32.0 °F 22.1 °F 21.2 °F 64% 30.24 in 10.0 mi NW 13.8 mph 17.3 mph N/A   Clear
4:35 AM 32.0 °F 23.6 °F 21.2 °F 64% 30.25 in 10.0 mi NW 10.4 mph - N/A   Clear
4:55 AM 32.0 °F 23.6 °F 19.4 °F 60% 30.26 in 10.0 mi NW 10.4 mph - N/A   Clear
5:15 AM 32.0 °F 23.0 °F 21.2 °F 64% 30.27 in 10.0 mi NW 11.5 mph 16.1 mph N/A   Clear
5:35 AM 30.2 °F 20.8 °F 21.2 °F 69% 30.28 in 10.0 mi NW 11.5 mph 18.4 mph N/A   Partly Cloudy
5:55 AM 30.2 °F 21.9 °F 21.2 °F 69% 30.29 in 10.0 mi WNW 9.2 mph 16.1 mph N/A   Clear
6:15 AM 30.2 °F 21.9 °F 21.2 °F 69% 30.31 in 10.0 mi WNW 9.2 mph - N/A   Clear
6:35 AM 30.2 °F - 21.2 °F 69% 30.31 in 10.0 mi Calm Calm - N/A   Clear
6:55 AM 28.4 °F - 21.2 °F 74% 30.32 in 10.0 mi Calm Calm - N/A   Clear
7:15 AM 28.4 °F - 23.0 °F 80% 30.33 in 10.0 mi Calm Calm - N/A   Clear
7:35 AM 30.2 °F 26.7 °F 23.0 °F 75% 30.33 in 10.0 mi West 3.5 mph - N/A   Clear
7:55 AM 30.2 °F 24.3 °F 23.0 °F 75% 30.35 in 10.0 mi West 5.8 mph - N/A   Clear
8:15 AM 30.2 °F - 23.0 °F 75% 30.35 in 10.0 mi Calm Calm - N/A   Clear
8:35 AM 32.0 °F 25.6 °F 23.0 °F 69% 30.35 in 10.0 mi West 6.9 mph - N/A   Clear
8:55 AM 32.0 °F 24.8 °F 23.0 °F 69% 30.36 in 10.0 mi WNW 8.1 mph - N/A   Clear
9:15 AM 32.0 °F 27.5 °F 23.0 °F 69% 30.36 in 10.0 mi West 4.6 mph - N/A   Clear
9:35 AM 32.0 °F 24.2 °F 23.0 °F 69% 30.36 in 10.0 mi WNW 9.2 mph - N/A   Clear
9:55 AM 33.8 °F 27.0 °F 23.0 °F 65% 30.36 in 10.0 mi West 8.1 mph - N/A   Clear
10:15 AM 35.6 °F 27.1 °F 21.2 °F 56% 30.37 in 10.0 mi WNW 12.7 mph 19.6 mph N/A   Clear
10:35 AM 37.4 °F 30.3 °F 23.0 °F 56% 30.37 in 10.0 mi West 10.4 mph 16.1 mph N/A   Clear
10:55 AM 37.4 °F 32.1 °F 23.0 °F 56% 30.37 in 10.0 mi West 6.9 mph 16.1 mph N/A   Clear
11:15 AM 39.2 °F 32.5 °F 23.0 °F 52% 30.36 in 10.0 mi West 10.4 mph 17.3 mph N/A   Clear
11:35 AM 39.2 °F 30.8 °F 19.4 °F 45% 30.35 in 10.0 mi WNW 15.0 mph 19.6 mph N/A   Clear
11:55 AM 39.2 °F 33.0 °F 19.4 °F 45% 30.34 in 10.0 mi West 9.2 mph - N/A   Clear
12:15 PM 39.2 °F 33.0 °F 19.4 °F 45% 30.34 in 10.0 mi West 9.2 mph 20.7 mph N/A   Clear
12:35 PM 41.0 °F 35.8 °F 19.4 °F 42% 30.33 in 10.0 mi WNW 8.1 mph 17.3 mph N/A   Clear
12:55 PM 41.0 °F 35.2 °F 21.2 °F 45% 30.32 in 10.0 mi West 9.2 mph - N/A   Clear
1:15 PM 42.8 °F 35.4 °F 21.2 °F 42% 30.32 in 10.0 mi WNW 15.0 mph 34.5 mph N/A   Clear
1:35 PM 44.6 °F 37.4 °F 19.4 °F 37% 30.31 in 10.0 mi West 16.1 mph 21.9 mph N/A   Clear
1:55 PM 44.6 °F 38.1 °F 21.2 °F 39% 30.31 in 10.0 mi WNW 13.8 mph 25.3 mph N/A   Clear
2:15 PM 44.6 °F 37.8 °F 21.2 °F 39% 30.31 in 10.0 mi WNW 15.0 mph 21.9 mph N/A   Clear
2:35 PM 44.6 °F 37.8 °F 19.4 °F 37% 30.31 in 10.0 mi WNW 15.0 mph 24.2 mph N/A   Clear
2:55 PM 44.6 °F 37.2 °F 21.2 °F 39% 30.32 in 10.0 mi WNW 17.3 mph 23.0 mph N/A   Clear
3:15 PM 44.6 °F 39.7 °F 19.4 °F 37% 30.32 in 10.0 mi West 9.2 mph 21.9 mph N/A   Clear
3:35 PM 44.6 °F 38.1 °F 21.2 °F 39% 30.33 in 10.0 mi WNW 13.8 mph 19.6 mph N/A   Clear
3:55 PM 44.6 °F 38.4 °F 21.2 °F 39% 30.33 in 10.0 mi WNW 12.7 mph 21.9 mph N/A   Clear
4:35 PM 42.8 °F 38.0 °F 21.2 °F 42% 30.35 in 10.0 mi West 8.1 mph - N/A   Clear
4:55 PM 42.8 °F 40.1 °F 21.2 °F 42% 30.36 in 10.0 mi West 4.6 mph - N/A   Clear
5:15 PM 41.0 °F 39.0 °F 23.0 °F 49% 30.36 in 10.0 mi West 3.5 mph - N/A   Clear
5:35 PM 41.0 °F - 21.2 °F 45% 30.37 in 10.0 mi Calm Calm - N/A   Clear
5:55 PM 41.0 °F - 21.2 °F 45% 30.37 in 10.0 mi Calm Calm - N/A   Clear
6:15 PM 39.2 °F - 23.0 °F 52% 30.38 in 10.0 mi Calm Calm - N/A   Clear
6:35 PM 39.2 °F - 23.0 °F 52% 30.38 in 10.0 mi Calm Calm - N/A   Clear
6:55 PM 37.4 °F - 23.0 °F 56% 30.40 in 10.0 mi Calm Calm - N/A   Clear
7:15 PM 37.4 °F - 23.0 °F 56% 30.40 in 10.0 mi Calm Calm - N/A   Clear
7:35 PM 37.4 °F - 23.0 °F 56% 30.41 in 10.0 mi Calm Calm - N/A   Clear
7:55 PM 37.4 °F - 24.8 °F 60% 30.41 in 10.0 mi Calm Calm - N/A   Clear
8:35 PM 37.4 °F - 23.0 °F 56% 30.42 in 10.0 mi Calm Calm - N/A   Clear
8:55 PM 37.4 °F - 23.0 °F 56% 30.42 in 10.0 mi Calm Calm - N/A   Clear
9:15 PM 32.0 °F - 26.6 °F 80% 30.43 in 10.0 mi Calm Calm - N/A   Clear
9:35 PM 35.6 °F 31.7 °F 24.8 °F 65% 30.43 in 10.0 mi NNW 4.6 mph - N/A   Clear
9:55 PM 32.0 °F - 26.6 °F 80% 30.43 in 10.0 mi Calm Calm - N/A   Clear
10:15 PM 30.2 °F - 26.6 °F 86% 30.43 in 10.0 mi Calm Calm - N/A   Clear
10:35 PM 30.2 °F - 26.6 °F 86% 30.43 in 10.0 mi Calm Calm - N/A   Clear
10:55 PM 28.4 °F - 26.6 °F 93% 30.43 in 10.0 mi Calm Calm - N/A   Clear
11:15 PM 28.4 °F - 26.6 °F 93% 30.44 in 10.0 mi Calm Calm - N/A   Clear
11:35 PM 28.4 °F - 26.6 °F 93% 30.44 in 10.0 mi Calm Calm - N/A   Clear
11:55 PM 28.4 °F - 26.6 °F 93% 30.44 in 10.0 mi Calm Calm - N/A   Clear